Location: Trois-Rivi�res
(46.3500°N, 72.5500°W)
Time: 05:40:29
(UTC-04:00)

Tiangong 2 - Pass Details

Date: 14 October 2017
Orbit: 388 x 392 km, 42.8° (Epoch: 16 October)

Event Time Altitude Azimuth Distance (km) Brightness Sun altitude
Exits shadow 06:30:51 - 260° (W) 1,530 3.5 -6.9°
Reaches altitude 10° 06:31:07 10° 259° (W) 1,421 3.3 -6.9°
Maximum altitude 06:34:08 38° 189° (S) 610 2.0 -6.3°
Drops below altitude 10° 06:37:09 10° 119° (ESE) 1,421 5.2 -5.8°
Sets 06:39:18 0° 111° (ESE) 2,276 6.9 -5.5°
